Location: Unspecified
(47.0333°N, 0.0000°E)
Time: 13:47:20
(UTC+00:00)

OTV 5 (USA 277) - Pass Details

Date: 19 June 2019
Orbit: 305 x 329 km, 54.5° (Epoch: 11 August)

Event Time Altitude Azimuth Distance (km) Brightness Sun altitude
Exits shadow 00:31:58 - 281° (W) 1,699 ? -19.2°
Reaches altitude 10° 00:33:12 10° 292° (WNW) 1,259 ? -19.2°
Maximum altitude 00:35:28 22° 346° (NNW) 803 ? -19.1°
Drops below altitude 10° 00:37:44 10° 40° (NE) 1,263 ? -19.1°
Enters shadow 01:41:30 -54° 268° (W) 10,669 ? -16.0°
